Preview of NWS' New Version of Forecast
This preview is not operational and should not be used for support decisions.

Regional Weather Roundup (RWR)

Issued by National Weather Service (NWS)

                            
000
ASUS45 KBOU 190210
RWRCO 

WEATHER ROUNDUP FOR COLORADO
NATIONAL WEATHER SERVICE DENVER/BOULDER CO
700 PM MST MON FEB 18 2019

NOTE: "FAIR" INDICATES FEW OR NO CLOUDS BELOW 12000 FEET WITH NO
SIGNIFICANT WEATHER AND/OR OBSTRUCTIONS TO VISIBILITY.

COZ001>005-013-030-031-190300-
...NORTHWEST COLORADO...
  
CITY           SKY/WX    TMP DP  RH WIND       PRES   REMARKS
CRAIG          LGT SNOW  16  12  84 CALM      29.87S FOG              
HAYDEN         LGT SNOW  13  11  92 W6        29.86S FOG     WCI   4  
MEEKER         LGT SNOW  19  11  70 N13       29.82R WCI   6          
RANGELY        CLOUDY    20  11  68 E13G20    29.89R WCI   7          
RABBIT EARS PA FLURRIES   7   3  85 E6        29.70R WCI  -3          
STEAMBOAT SPGS CLOUDY    13  10  90 CALM      29.82R                  
WALDEN         CLOUDY    10   3  72 CALM      29.80R                  
$$

COZ006>008-011-190300-
...WEST CENTRAL VALLEYS...
  
CITY           SKY/WX    TMP DP  RH WIND       PRES   REMARKS
GRAND JUNCTION LGT SNOW  29  26  89 E3        29.83R FOG              
MONTROSE       CLOUDY    26  23  88 W6        29.85R WCI  19          
EAGLE          CLOUDY    26  13  57 CALM      29.80R                  
RIFLE          CLOUDY    28  20  71 NW7       29.82R WCI  21          
DELTA          FLURRIES  30  26  86 NE5       29.85R WCI  25          
NUCLA          FAIR      28  21  74 CALM      29.85R                  
$$

COZ017>023-064>068-190300-
...SOUTHWEST COLORADO...
  
CITY           SKY/WX    TMP DP  RH WIND       PRES   REMARKS
DURANGO        LGT SNOW  23  22  96 NE3       29.83R VSB 1            
CORTEZ         CLOUDY    28  19  69 SE5       29.83R WCI  23          
PAGOSA SPRINGS LGT SNOW  24  24 100 E3        29.82S                  
TELLURIDE      CLOUDY    18  10  73 CALM      29.77R                  
WOLF CREEK PAS CLOUDY     7   5  92 S17G30    29.74R WCI -12          
$$

COZ009-010-012-014-032>034-037-058>063-190300-
...CENTRAL COLORADO...
  
CITY           SKY/WX    TMP DP  RH WIND       PRES   REMARKS
ASPEN          CLOUDY    24  10  55 SE5       29.73R WCI  18          
BUENA VISTA    LGT SNOW  15  11  87 CALM      29.83R VSB 3/4          
COPPER MTN     CLOUDY    10   0  61 SE14      29.67S WCI  -5          
BERTHOUD PASS  CLOUDY     0 -11  60 SW5G18    29.68R WCI -10          
DAKOTA HILL    FAIR       5   0  78 SW7       29.71S WCI  -7          
COTTONWOOD PAS SNOW      12   9  85 CALM      29.76R VSB 1/2          
GUNNISON       LGT SNOW  18  15  88 W6        29.79R FOG     WCI  10  
GRANBY         FAIR      15   2  57 CALM      29.77R                  
KREMMLING      CLOUDY    14   9  79 CALM      29.81R                  
LEADVILLE      CLOUDY     8   6  92 SW6       29.72R FOG     WCI  -2  
MONARCH PASS     N/A      9   3  78 MISG      29.80R                  
SALIDA         CLOUDY    13  10  86 SE14G22   29.93R VSB 1   WCI  -2  
SUNLIGHT       LGT SNOW  10   7  85 SE3       29.75R                  
WILKERSON PASS CLOUDY     9   3  78 SW3       29.76R                  
$$

COZ069>075-190300-
...SAN LUIS VALLEY/SANGRE DE CRISTO MOUNTAINS...
  
CITY           SKY/WX    TMP DP  RH WIND       PRES   REMARKS
ALAMOSA        NOT AVBL                                               
DEL NORTE      LGT SNOW  21  18  85 CALM      29.80R                  
LA VETA PASS   NOT AVBL                                               
SAGUACHE       LGT SNOW  23  18  80 CALM      29.81R                  
$$

COZ035-036-038>040-190300-
...NORTHERN COLORADO FRONT RANGE...
  
CITY           SKY/WX    TMP DP  RH WIND       PRES   REMARKS
DENVER INTL AP FLURRIES  17  14  88 NW12      29.99R WCI   4          
AURORA         FLURRIES  15  14  95 NW8       29.99S WCI   5          
FRONT RANGE AP CLOUDY    19  12  73 CALM      30.00R                  
ERIE MUNI ARPT FLURRIES  17  13  84 N8        30.09S WCI   7          
BOULDER MUN AP CLOUDY    18  10  73 N5        30.03R WCI  11          
CENTENNIAL     FLURRIES  15  10  80 N7        29.97S WCI   5          
BROOMFIELD     CLOUDY    16  12  86 N10       30.01R FOG     WCI   3  
FORT COLLINS   FLURRIES  16  11  80 NE5       30.06S WCI   9          
LONGMONT       CLOUDY    19  11  71 N6        30.07R WCI  11          
$$

COZ041-046-047-076>085-087-088-190300-
...PIKES PEAK/PALMER DIVIDE AND SOUTHERN FOOTHILLS...
  
CITY           SKY/WX    TMP DP  RH WIND       PRES   REMARKS
COLO. SPRINGS  LGT SNOW   8   5  87 SE13      30.01S FOG     WCI  -8  
A. F. ACADEMY  CLOUDY     7   2  81 SE12      29.96S WCI  -8          
SCHRIEVER AFB  NOT AVBL                                               
CHEYENNE MTN   LGT SNOW   4   2  90 SE13      29.89S WCI -13          
ELLICOTT       NOT AVBL                                               
FALCON         FLURRIES   5   2  88 S14       29.97S WCI -12          
FORT CARSON    FLURRIES   9   5  85 S9        30.03R WCI  -4          
LIMON          CLOUDY     8   5  87 S13G21    30.07S WCI  -8          
MONUMENT HILL  FAIR       3   0  85 S9        29.93S WCI -11          
CANON CITY     LGT SNOW  14  10  85 E10       30.06R WCI   1          
WALSENBURG     NOT AVBL                                               
TRINIDAD       CLOUDY    11   8  88 NE5       30.03R WCI   3          
$$

COZ042>045-048>051-090-091-190300-
...NORTHEAST COLORADO...
  
CITY           SKY/WX    TMP DP  RH WIND       PRES   REMARKS
GREELEY ARPT   CLOUDY    16  11  80 E15       30.07S WCI   1          
AKRON          FLURRIES  15  10  80 S13G24    30.12R WCI   1          
BURLINGTON     LGT SNOW  15  11  83 SE13      30.20R FOG     WCI   1  
WRAY           FLURRIES  18  12  79 E9        30.24S WCI   6          
YUMA           FLURRIES  16  10  79 SE12G17   30.18R WCI   3          
STERLING       CLOUDY    16  10  79 SE17G23   30.16S WCI   0          
HOLYOKE        LGT SNOW  14  10  85 E13       30.25R WCI   0          
FORT MORGAN      N/A     15  11  83 E10       30.11S WCI   2          
$$

COZ086-089-092>099-190300-
...SOUTHEAST COLORADO...
  
CITY           SKY/WX    TMP DP  RH WIND       PRES   REMARKS
PUEBLO         LGT SNOW  14  10  84 E10       30.12R FOG     WCI   1  
LA JUNTA       CLOUDY    14  10  84 E17       30.14S WCI  -3          
LAMAR          FLURRIES  14   9  80 E8        30.21S WCI   3          
SPRINGFIELD      N/A     15  13  91 SE12      30.16R WCI   2          
$$